Regional Weather Roundup
Issued by NWS

Home | Current Version | Previous Version | Graphics & Text | Print | Product List | Glossary On
Versions: 1 2 3 4 5 6 7 8 9 10 11 12 13 14 15 16 17 18 19 20 21 22 23 24 25 26 27 28 29 30 31 32 33 34 35 36 37 38 39 40 41 42 43 44 45 46 47 48 49 50
000
ASUS43 KIND 182159
RWRIN

WEATHER ROUNDUP FOR INDIANA
NATIONAL WEATHER SERVICE INDIANAPOLIS IN
500 PM EST SUN FEB 18 2018

NOTE: "FAIR" INDICATES FEW OR NO CLOUDS BELOW 12,000 FEET WITH NO
SIGNIFICANT WEATHER AND/OR OBSTRUCTIONS TO VISIBILITY.

* - STATION DOES NOT REPORT WEATHER SUCH AS PRECIPITATION OR FOG.

+ - STATION NOT QUALITY CONTROLLED BY THE NATIONAL WEATHER SERVICE.
    USE DATA WITH CAUTION...ESPECIALLY DEWPOINT AND RELATIVE
    HUMIDITY OBSERVATIONS.

INZ001>003-010>013-019-020-182300-
NORTHWEST INDIANA

CITY           SKY/WX    TMP DP  RH WIND       PRES   REMARKS
GARY /AIRPORT/ PTSUNNY   39  28  65 SE12G23   30.10F WCI  32
KNOX *+        FAIR      36  30  80 S20       30.14F WCI  25
MONTICELLO +   FAIR      43  31  64 SE7       30.14F

$$

LMZ046-743>745-182300-
SOUTHERN LAKE MICHIGAN

STATION/POSITION TIME  TEMP    WIND        PRES    WAVE
                       AIR SEA DIR/SP/G            HT
                 (UTC) (F)     (DEG/KT/KT) (MB)    (FT)
BURNS HARBOR     2140   36     150/ 11/ 20 1020.0F
MICHIGAN CITY    2130   36     130/ 18/ 22   N/A

$$

INZ004-005-014>016-021>024-182300-
NORTH CENTRAL INDIANA

CITY           SKY/WX    TMP DP  RH WIND       PRES   REMARKS
GOSHEN         FAIR      37  28  70 SE13      30.18F WCI  29
PERU/GRISSOM   FAIR      42  36  80 SE13      30.15F
SOUTH BEND     FAIR      34  26  72 SE17      30.14F WCI  23
WARSAW +       FAIR      36  30  80 SE10      30.18S WCI  28

$$

INZ006>009-017-018-025>027-182300-
NORTHEAST INDIANA

CITY           SKY/WX    TMP DP  RH WIND       PRES   REMARKS
AUBURN +       FAIR      36  32  87 SE6       30.21F WCI  31
FORT WAYNE     PTSUNNY   40  32  73 SE10      30.20F WCI  33
KENDALLVILLE + FAIR      36  29  76 SE13G18   30.19F WCI  27

$$

INZ028-029-035-036-043>045-051>053-182300-
WEST CENTRAL INDIANA

CITY           SKY/WX    TMP DP  RH WIND       PRES   REMARKS
LAFAYETTE      FAIR      44  32  62 SE13G20   30.13F
TERRE HAUTE    FAIR      48  33  56 S14       30.13F

$$

INZ030>032-037>040-046>048-054>057-064-065-182300-
CENTRAL INDIANA

CITY           SKY/WX    TMP DP  RH WIND       PRES   REMARKS
COLUMBUS       CLOUDY    46  28  49 SE14      30.19F
GREENWOOD *+   FAIR     N/A N/A N/A SE9G16    30.17F
INDIANAPOLIS   CLOUDY    45  31  58 SE15      30.15F
-EAGLE CREEK   FAIR      46  30  53 SE15      30.15F
KOKOMO +       FAIR      42  33  70 SE14      30.17F
MT COMFORT *+  FAIR      43  37  81 SE9       30.17F
SHELBYVILLE    FAIR      46  33  60 SE15      30.16F

$$

INZ033-034-041-042-049-050-058-059-182300-
EAST CENTRAL INDIANA

CITY           SKY/WX    TMP DP  RH WIND       PRES   REMARKS
MUNCIE         FAIR      45  30  55 SE12      30.18F

$$

INZ060-061-067>069-081>083-085>088-182300-
SOUTHWEST INDIANA

CITY           SKY/WX    TMP DP  RH WIND       PRES   REMARKS
EVANSVILLE     FAIR      50  33  52 SE10      30.15F
HUNTINGBURG +  FAIR      50  32  50 SE8       30.16F

$$

INZ062-063-066-070>080-084-089>092-182300-
SOUTH CENTRAL AND SOUTHEAST INDIANA

CITY           SKY/WX    TMP DP  RH WIND       PRES   REMARKS
BLOOMINGTON    FAIR      48  30  49 S14       30.14F
SEYMOUR +      FAIR      48  34  57 SE10      30.17F

$$





USA.gov is the U.S. government's official web portal to all federal, state and local government web resources and services.